Temperature
1 1 1 1 1 1 2 2 2 3 3 3 3 3 4 4 4 4 4 4 4 4 4 4 5 5 5 5 4 4 4 4 4 4 4 4 4 4 4 4 4 4 4
-0 0 0 0 0 1 1 1 2 2 2 2 3 3 3 3 4 4 4 4 4 4 4 4 4 4 4 4 4 4 4 4 4 4 4 4 4 3 3 3 3 3 3
-1 -1 -0 -0 -0 0 0 1 1 1 2 2 2 2 3 3 3 3 3 3 3 3 3 3 4 4 4 4 4 4 4 3 3 3 3 3 3 3 3 3 3 3 3
-1 -1 -1 -1 -1 -0 -0 0 1 1 1 2 2 2 2 2 2 2 3 3 3 3 3 3 3 3 3 3 3 3 3 3 3 3 3 3 3 2 2 2 2 2 2
-2 -2 -2 -2 -2 -1 -1 -0 0 0 1 1 1 1 2 2 2 2 2 2 2 2 2 2 3 3 3 3 3 3 3 2 2 2 2 2 2 2 2 2 2 2 2
-3 -2 -2 -2 -2 -2 -1 -1 -1 -0 0 0 1 1 1 1 1 1 1 1 2 2 2 2 2 2 2 2 2 2 2 2 2 2 2 2 2 2 2 2 1 1 1
-3 -3 -3 -3 -3 -2 -2 -2 -1 -1 -1 -0 -0 -0 0 0 1 1 1 1 1 1 1 2 2 2 2 2 2 2 2 2 1 2 2 2 2 2 1 1 1 1 1
-4 -4 -4 -3 -3 -3 -3 -2 -2 -2 -1 -1 -1 -1 -1 -0 -0 0 0 0 1 1 1 1 1 1 1 1 1 1 1 1 1 1 1 2 1 1 1 1 1 0 0
-5 -4 -4 -4 -4 -4 -3 -3 -3 -2 -2 -2 -2 -1 -1 -1 -1 -1 -1 -0 -0 0 0 0 0 1 1 1 0 0 1 1 1 1 1 1 1 1 0 0 0 -0 -0
-5 -5 -5 -5 -4 -4 -4 -4 -3 -3 -3 -3 -2 -2 -2 -1 -1 -1 -1 -1 -1 -1 -0 -0 -0 -0 -0 -0 -0 -0 -0 0 0 -0 0 0 -0 -0 -0 -0 -0 -0 -1
-6 -5 -5 -5 -5 -5 -4 -4 -4 -4 -3 -3 -3 -3 -2 -2 -2 -2 -2 -2 -2 -1 -1 -1 -1 -1 -1 -1 -1 -1 -1 -1 -1 -1 -1 -1 -1 -1 -1 -1 -1 -1 -1
-6 -6 -5 -5 -5 -5 -5 -5 -4 -4 -4 -4 -4 -3 -3 -3 -3 -3 -3 -2 -2 -2 -2 -2 -2 -2 -1 -1 -1 -1 -1 -1 -1 -1 -1 -1 -1 -1 -1 -1 -1 -1 -2
-6 -6 -6 -6 -5 -5 -5 -5 -5 -5 -4 -4 -4 -4 -4 -3 -3 -3 -3 -3 -3 -3 -3 -3 -2 -2 -2 -2 -2 -2 -2 -2 -2 -2 -2 -2 -2 -2 -2 -2 -2 -2 -2
-7 -6 -6 -6 -6 -6 -6 -6 -5 -5 -5 -5 -5 -5 -5 -4 -4 -4 -4 -4 -3 -3 -3 -3 -3 -3 -3 -3 -3 -3 -3 -2 -2 -2 -2 -2 -3 -3 -3 -3 -3 -3 -3
-7 -7 -7 -7 -6 -6 -6 -6 -6 -6 -6 -6 -6 -5 -5 -5 -5 -5 -4 -4 -4 -4 -4 -4 -3 -3 -3 -3 -3 -3 -3 -3 -3 -3 -3 -3 -3 -3 -3 -3 -3 -3 -3
-8 -7 -7 -7 -7 -7 -7 -6 -6 -6 -6 -6 -6 -6 -5 -5 -5 -5 -5 -5 -4 -4 -4 -4 -4 -4 -4 -4 -4 -4 -4 -4 -4 -4 -4 -4 -4 -4 -4 -4 -4 -4 -4
-8 -8 -8 -8 -8 -8 -7 -7 -7 -7 -6 -6 -6 -6 -6 -6 -6 -6 -5 -5 -5 -5 -5 -5 -5 -4 -4 -4 -4 -4 -4 -4 -4 -4 -4 -4 -4 -4 -4 -4 -4 -4 -4
-8 -8 -8 -8 -8 -8 -8 -8 -8 -8 -7 -7 -7 -7 -6 -6 -6 -6 -6 -6 -6 -5 -5 -5 -5 -5 -5 -5 -5 -5 -5 -5 -5 -5 -5 -5 -5 -5 -5 -5 -5 -5 -5
-9 -9 -9 -9 -8 -8 -8 -8 -8 -8 -8 -8 -7 -7 -7 -7 -7 -6 -6 -6 -6 -6 -6 -5 -5 -5 -5 -5 -5 -5 -5 -5 -5 -5 -5 -5 -5 -5 -5 -5 -5 -5 -5
-9 -9 -9 -9 -9 -9 -9 -9 -9 -9 -9 -8 -8 -8 -8 -7 -7 -7 -7 -7 -6 -6 -6 -6 -6 -6 -6 -6 -5 -5 -5 -5 -5 -5 -5 -5 -5 -5 -6 -6 -5 -5 -6
-10 -9 -9 -9 -9 -9 -9 -9 -9 -9 -9 -9 -9 -8 -8 -8 -8 -8 -7 -7 -7 -7 -6 -6 -6 -6 -6 -6 -6 -6 -6 -6 -6 -6 -6 -6 -6 -6 -6 -6 -6 -6 -6
-10 -10 -10 -10 -10 -10 -10 -9 -9 -9 -9 -9 -9 -9 -9 -9 -8 -8 -8 -8 -7 -7 -7 -7 -7 -7 -6 -6 -6 -6 -6 -6 -6 -6 -6 -6 -6 -6 -6 -6 -6 -6 -6
-10 -10 -10 -10 -10 -10 -10 -10 -10 -10 -10 -9 -9 -9 -9 -9 -9 -9 -8 -8 -8 -8 -7 -7 -7 -7 -7 -7 -7 -7 -6 -6 -6 -6 -6 -6 -6 -6 -6 -6 -7 -7 -7
-10 -10 -11 -10 -10 -10 -10 -10 -10 -10 -10 -10 -10 -10 -10 -9 -9 -9 -9 -9 -8 -8 -8 -8 -8 -7 -7 -7 -7 -7 -7 -7 -7 -7 -7 -7 -7 -7 -7 -7 -7 -7 -7
-11 -11 -11 -11 -11 -11 -11 -11 -11 -10 -10 -10 -10 -10 -10 -10 -10 -9 -9 -9 -9 -8 -8 -8 -8 -8 -8 -7 -7 -7 -7 -7 -7 -7 -7 -7 -7 -7 -7 -7 -7 -7 -7
-11 -11 -11 -11 -11 -11 -11 -11 -11 -11 -11 -11 -11 -10 -10 -10 -10 -10 -10 -9 -9 -9 -8 -8 -8 -8 -8 -8 -8 -8 -7 -7 -7 -7 -7 -7 -7 -7 -7 -7 -7 -7 -7
Wind_Speed
6 6 5 5 5 5 4 5 5 5 4 4 4 4 4 4 4 4 4 5 5 5 4 5 5 5 4 4 3 4 3 3 3 2 1 1 1 2 1 2 2 2 3
6 6 5 5 5 5 5 5 5 5 5 4 4 4 4 4 4 5 5 5 5 6 6 6 6 5 5 4 4 5 4 4 4 4 2 2 2 2 2 1 1 2 2
6 6 6 6 5 5 5 5 5 5 5 4 4 4 5 5 5 5 5 5 5 6 6 7 7 6 6 5 5 4 4 4 3 4 3 2 1 1 1 0 0 1 2
6 5 6 6 6 5 5 5 5 4 4 4 4 4 4 5 5 5 4 5 5 5 6 6 7 7 7 7 6 5 5 4 4 4 3 2 2 2 2 2 1 1 2
7 6 6 6 5 5 5 5 5 4 4 4 4 3 3 3 4 4 4 5 5 5 5 5 6 7 8 7 6 6 6 5 4 4 4 3 3 3 3 3 3 1 2
7 6 6 5 5 5 5 5 5 4 4 4 3 3 3 3 5 6 5 4 5 5 5 4 4 6 7 8 8 8 8 7 6 6 5 6 5 4 3 4 3 2 2
7 7 5 5 5 5 5 5 5 4 4 4 3 3 3 4 6 6 6 4 4 4 4 4 4 4 5 4 5 6 7 9 9 7 7 7 6 6 6 5 4 3 4
7 7 5 5 5 5 5 5 5 4 4 4 4 4 3 4 5 5 5 4 3 4 4 5 5 4 5 5 4 4 4 4 6 5 6 6 6 6 7 6 5 2 0
7 7 6 5 5 5 5 5 5 4 4 4 4 3 3 4 4 4 3 2 2 2 3 4 4 4 6 6 5 4 3 2 3 4 4 5 6 7 6 4 4 3 2
7 7 6 5 5 5 5 5 5 4 4 4 4 3 3 4 4 4 3 1 2 2 2 3 4 5 6 6 5 5 5 3 2 2 2 2 4 5 7 5 5 5 2
8 7 6 5 5 5 4 5 4 4 3 3 3 4 3 3 4 4 3 1 2 2 2 2 3 5 6 6 5 4 5 4 3 3 2 2 2 2 3 3 3 4 4
7 7 6 6 5 4 4 4 4 3 3 2 2 3 3 3 3 4 4 3 2 2 2 2 3 4 5 5 4 5 5 4 3 3 3 2 2 2 2 2 3 2 2
7 7 6 6 5 4 4 4 3 3 2 2 2 3 3 2 3 4 4 3 3 1 2 3 3 3 3 3 4 5 4 3 3 3 3 3 2 2 3 2 2 3 2
7 7 6 5 5 4 4 3 3 3 3 3 3 3 3 3 3 2 2 2 2 1 1 1 2 2 2 2 2 2 2 3 3 3 3 2 2 2 2 3 2 2 1
7 6 5 5 4 4 4 3 4 4 4 4 4 4 3 4 5 5 4 2 2 2 1 1 1 1 2 2 2 2 2 2 2 2 3 3 3 2 2 2 2 2 2
6 5 4 4 4 4 4 5 5 5 6 6 6 6 5 6 6 6 6 4 3 3 1 2 2 3 3 3 3 2 2 3 3 3 3 3 3 3 3 2 2 3 3
6 6 4 4 4 4 4 4 4 5 5 5 6 6 6 5 5 5 4 3 3 3 2 2 3 3 3 3 3 3 3 3 3 3 4 4 4 4 3 3 3 3 3
6 6 5 4 4 4 4 3 3 3 4 4 5 6 5 4 4 4 3 1 1 1 1 2 3 3 3 3 4 3 3 3 3 4 4 4 4 4 4 4 4 4 4
5 4 4 4 4 3 3 3 3 3 3 4 4 4 5 4 4 3 1 1 2 2 2 2 2 2 3 3 3 3 4 4 4 4 4 5 5 5 5 5 5 6 5
4 7 6 4 3 3 3 3 3 3 3 3 3 3 3 3 2 2 2 1 1 2 2 2 2 2 3 3 3 3 4 4 5 5 5 5 5 5 6 6 5 5 5
4 5 7 5 3 3 3 3 3 3 3 3 3 4 5 3 2 2 2 2 2 2 2 2 2 2 3 3 3 4 5 4 5 5 5 5 5 5 5 5 5 5 4
3 4 4 4 3 3 3 3 3 3 3 3 3 4 5 3 2 2 3 3 3 3 2 2 2 3 3 3 4 4 4 5 5 5 5 5 5 5 5 5 5 5 5
3 4 4 4 3 5 4 3 3 3 3 3 3 3 3 3 3 3 3 3 3 3 2 2 2 3 2 3 4 4 5 5 5 6 6 5 5 5 5 5 6 6 5
3 3 4 4 3 3 3 3 3 3 3 3 3 3 3 3 3 3 3 3 3 3 3 3 3 3 4 4 4 5 5 6 6 7 7 7 6 5 5 5 6 6 6
3 3 3 3 3 3 3 3 3 3 3 3 3 3 3 3 3 3 3 3 3 3 3 3 3 3 4 5 5 5 6 6 7 6 7 6 6 6 6 6 5 5 5
3 3 3 3 3 3 3 3 3 4 4 4 3 3 3 3 3 3 3 3 3 4 4 3 4 5 5 5 5 5 6 6 6 6 6 5 5 5 5 5 6 6 5
Wind_Direction
323 319 319 315 309 301 299 294 286 286 277 260 252 239 230 224 216 213 218 206 204 207 205 202 205 192 191 190 185 184 188 181 212 244 226 213 192 196 223 220 218 217 235
317 314 315 318 319 315 308 304 299 291 286 272 263 246 233 228 217 212 219 215 209 209 208 202 205 194 192 192 189 194 196 191 190 215 223 210 210 201 186 184 223 219 232
321 320 321 318 315 309 304 305 303 295 288 279 264 250 239 232 222 218 217 217 215 216 211 207 203 194 199 197 193 194 197 197 188 193 213 210 210 196 160 187 255 270 259
322 317 313 310 307 305 304 305 302 298 296 284 268 258 247 238 229 223 219 220 216 217 215 212 204 200 202 197 196 191 187 187 180 185 195 198 201 192 165 184 226 239 278
318 312 306 306 306 309 310 307 305 304 305 299 286 275 265 249 234 221 217 222 215 212 212 211 209 207 209 205 202 190 186 190 189 193 197 202 203 189 197 194 214 232 277
312 306 307 310 314 315 315 311 312 315 314 309 296 278 267 261 255 245 236 225 214 208 210 209 211 208 210 215 216 209 201 198 200 205 211 209 212 206 196 195 199 213 258
307 305 307 310 312 312 314 317 314 314 314 310 301 286 272 267 261 254 247 238 220 210 208 203 212 214 207 198 208 215 221 222 217 210 208 211 205 200 190 200 208 220 237
305 305 306 309 309 310 312 312 312 308 305 299 291 286 282 273 273 269 256 235 222 213 208 203 201 201 204 195 189 198 213 226 230 223 215 211 205 193 195 202 205 207 230
306 306 305 305 305 306 309 307 307 305 303 296 290 287 285 284 278 273 273 225 216 222 213 202 200 200 208 202 187 188 200 225 235 215 217 205 197 193 181 169 175 185 239
303 303 302 301 299 299 299 300 300 295 293 300 304 298 286 281 277 270 255 217 213 223 212 203 211 212 210 208 192 187 196 207 179 163 162 181 179 182 190 191 189 194 212
306 306 304 302 296 290 291 295 298 303 305 305 305 304 291 280 280 272 262 228 207 217 221 218 215 212 214 215 212 200 199 186 167 161 163 160 156 159 173 184 189 196 200
309 305 302 300 297 298 294 299 299 298 303 302 301 306 301 292 286 273 271 265 239 220 230 228 219 214 211 210 213 196 189 175 161 165 173 180 185 189 178 157 149 143 180
308 304 303 303 300 297 291 294 296 288 286 291 292 294 297 302 292 282 272 262 254 258 244 230 218 210 207 203 196 193 187 176 176 184 193 203 198 186 160 148 126 111 86
303 302 303 303 303 302 297 290 289 284 281 285 283 281 288 290 285 279 262 248 233 230 217 207 208 212 208 183 179 183 186 183 186 193 190 190 172 173 183 186 187 177 173
305 303 306 306 301 301 296 284 282 269 263 271 271 267 262 267 266 269 271 250 231 218 198 201 195 197 194 182 170 164 166 172 184 182 184 186 187 185 196 194 201 198 206
307 308 307 306 303 300 300 307 304 301 299 300 298 293 279 275 280 267 264 255 239 211 210 199 211 213 206 200 193 190 191 191 190 188 191 191 193 192 197 196 194 198 203
298 301 303 304 301 299 296 297 308 322 322 316 314 309 303 290 284 278 256 238 220 203 207 209 217 215 209 205 204 204 212 204 193 193 196 195 195 195 198 204 200 201 212
298 299 302 295 294 292 289 288 290 299 312 318 322 317 312 310 306 296 263 231 224 233 223 215 221 221 216 211 210 207 204 199 198 200 197 197 197 198 203 211 209 207 213
300 299 300 297 296 294 293 293 291 290 295 307 321 324 324 322 321 320 300 247 226 238 242 236 229 225 227 223 217 211 207 208 204 200 202 203 200 201 208 214 212 209 214
300 306 312 307 305 303 298 293 292 292 295 298 302 310 320 326 324 320 328 312 271 259 251 246 245 239 233 231 225 214 209 211 210 208 208 206 203 204 208 210 211 210 217
303 306 314 313 304 299 292 284 281 280 281 285 289 294 304 305 294 293 297 300 291 278 270 261 251 245 242 239 231 220 214 215 216 213 211 209 204 206 209 209 212 212 213
306 304 303 298 298 296 293 287 284 280 278 283 293 299 307 318 303 292 295 295 298 291 277 264 257 249 244 240 232 222 220 219 216 214 213 209 205 204 206 208 211 210 210
309 308 307 304 301 301 306 298 289 284 284 285 287 295 300 304 300 296 297 301 301 302 296 277 268 264 254 246 233 223 223 224 219 209 209 210 207 206 206 209 210 210 213
312 309 307 308 307 304 304 305 301 295 291 288 289 290 294 295 294 296 299 301 303 302 298 288 270 264 265 262 249 235 230 223 215 211 209 209 210 209 206 208 211 210 211
319 314 311 307 306 306 307 307 307 306 300 295 292 292 295 298 299 297 297 300 303 301 301 300 285 272 267 263 255 244 239 234 228 215 204 202 204 206 204 206 210 206 209
322 316 314 312 307 306 307 307 308 311 307 299 294 293 291 291 294 297 297 300 306 307 306 306 296 289 280 266 256 250 243 239 234 223 200 194 198 204 201 206 206 205 203
Height
1482 1481 1480 1479 1478 1478 1478 1477 1478 1478 1478 1478 1479 1480 1481 1482 1483 1484 1486 1488 1489 1491 1493 1495 1496 1498 1500 1503 1504 1506 1508 1509 1509 1510 1512 1514 1515 1517 1518 1518 1519 1520 1520
1478 1477 1476 1475 1474 1474 1473 1473 1473 1473 1474 1474 1474 1475 1476 1477 1478 1479 1480 1482 1484 1486 1487 1489 1491 1493 1495 1497 1499 1500 1502 1504 1505 1505 1507 1509 1511 1512 1513 1514 1515 1515 1516
1475 1473 1472 1470 1470 1469 1469 1469 1469 1469 1469 1469 1469 1470 1471 1472 1472 1474 1475 1477 1478 1480 1482 1484 1486 1488 1490 1492 1493 1495 1497 1499 1500 1501 1502 1504 1506 1507 1508 1509 1510 1511 1511
1470 1469 1467 1466 1466 1465 1464 1464 1464 1464 1464 1464 1464 1465 1466 1467 1467 1468 1470 1471 1473 1475 1477 1479 1480 1482 1484 1486 1488 1490 1492 1493 1495 1496 1497 1499 1500 1502 1503 1504 1505 1506 1507
1466 1465 1463 1462 1461 1461 1460 1459 1459 1459 1459 1459 1460 1460 1461 1461 1462 1463 1464 1466 1467 1469 1471 1473 1475 1476 1478 1480 1482 1484 1486 1487 1489 1490 1491 1493 1494 1496 1498 1499 1500 1501 1502
1462 1461 1459 1458 1457 1456 1455 1455 1455 1454 1455 1455 1455 1455 1456 1456 1458 1459 1460 1461 1462 1464 1465 1467 1469 1471 1473 1475 1477 1479 1481 1482 1483 1485 1486 1487 1488 1491 1493 1494 1495 1496 1496
1458 1456 1455 1454 1452 1452 1451 1451 1450 1450 1450 1450 1450 1451 1451 1452 1453 1454 1455 1456 1457 1459 1460 1462 1464 1466 1467 1469 1471 1473 1475 1477 1479 1480 1481 1482 1483 1485 1487 1489 1490 1491 1491
1454 1452 1451 1449 1448 1448 1447 1447 1446 1446 1446 1446 1446 1446 1447 1447 1448 1449 1450 1451 1452 1453 1455 1457 1458 1460 1462 1464 1465 1467 1468 1470 1472 1474 1475 1477 1479 1480 1482 1484 1485 1486 1486
1450 1448 1447 1446 1444 1443 1443 1442 1442 1442 1442 1442 1441 1442 1442 1443 1444 1444 1445 1446 1447 1448 1450 1452 1453 1455 1457 1459 1460 1461 1463 1465 1467 1468 1470 1472 1473 1475 1477 1478 1479 1480 1480
1447 1445 1444 1442 1441 1440 1439 1439 1439 1438 1438 1438 1438 1438 1438 1438 1439 1440 1441 1442 1442 1444 1445 1447 1449 1450 1452 1454 1455 1456 1457 1459 1461 1463 1465 1466 1468 1469 1471 1473 1474 1475 1475
1443 1442 1440 1439 1438 1437 1436 1436 1435 1434 1434 1434 1434 1434 1434 1434 1435 1436 1437 1438 1438 1439 1440 1442 1444 1446 1447 1449 1450 1452 1453 1455 1457 1458 1459 1461 1462 1464 1465 1467 1469 1470 1471
1440 1438 1436 1435 1434 1433 1432 1432 1431 1431 1430 1430 1430 1430 1430 1431 1431 1432 1433 1434 1435 1436 1436 1438 1439 1441 1442 1444 1445 1447 1449 1451 1452 1453 1454 1455 1457 1459 1460 1462 1464 1465 1466
1436 1434 1433 1432 1431 1430 1429 1428 1427 1427 1427 1426 1426 1426 1426 1427 1427 1428 1429 1430 1431 1432 1432 1433 1435 1436 1437 1439 1441 1443 1444 1446 1447 1448 1449 1450 1452 1454 1456 1457 1459 1460 1461
1433 1431 1429 1428 1427 1426 1426 1425 1424 1424 1423 1423 1422 1422 1422 1423 1423 1424 1425 1426 1427 1428 1428 1429 1430 1432 1433 1435 1436 1438 1439 1441 1442 1443 1444 1446 1448 1449 1451 1452 1454 1455 1456
1430 1428 1426 1425 1423 1422 1422 1422 1421 1421 1421 1420 1419 1419 1419 1419 1420 1421 1422 1422 1423 1424 1425 1425 1426 1427 1428 1430 1431 1433 1435 1436 1437 1439 1440 1441 1443 1445 1446 1448 1449 1450 1451
1426 1424 1423 1421 1420 1419 1418 1418 1418 1418 1418 1417 1417 1417 1416 1417 1417 1418 1419 1419 1420 1421 1421 1421 1421 1422 1424 1425 1427 1428 1430 1432 1433 1435 1436 1437 1438 1440 1441 1443 1444 1445 1446
1424 1422 1420 1419 1417 1416 1416 1414 1413 1414 1414 1414 1413 1413 1413 1413 1414 1414 1415 1415 1416 1417 1417 1417 1418 1419 1420 1421 1423 1424 1426 1427 1429 1430 1432 1433 1434 1435 1437 1438 1439 1440 1441
1421 1419 1418 1416 1415 1414 1413 1412 1411 1410 1410 1409 1410 1410 1410 1410 1410 1411 1411 1412 1412 1412 1413 1413 1414 1415 1416 1418 1419 1420 1422 1423 1424 1426 1427 1428 1429 1430 1432 1433 1434 1435 1436
1418 1416 1415 1413 1412 1411 1411 1410 1409 1409 1408 1407 1407 1407 1407 1407 1407 1408 1408 1408 1408 1408 1409 1410 1411 1411 1412 1414 1415 1416 1417 1418 1420 1421 1422 1423 1424 1426 1427 1428 1429 1430 1431
1416 1414 1412 1411 1410 1409 1408 1407 1407 1407 1406 1405 1405 1405 1404 1404 1404 1404 1405 1405 1405 1405 1406 1407 1407 1408 1409 1409 1410 1411 1413 1414 1415 1416 1417 1418 1419 1421 1422 1423 1424 1425 1426
1413 1411 1410 1409 1407 1407 1406 1405 1405 1404 1404 1403 1403 1403 1403 1402 1402 1402 1402 1402 1402 1402 1403 1403 1404 1404 1405 1405 1406 1407 1408 1409 1410 1411 1412 1413 1414 1416 1417 1418 1419 1420 1421
1411 1409 1408 1407 1406 1405 1404 1403 1403 1402 1402 1401 1401 1401 1401 1400 1400 1400 1399 1399 1400 1400 1400 1400 1400 1401 1401 1402 1402 1403 1403 1404 1405 1406 1407 1408 1409 1410 1412 1413 1414 1415 1416
1409 1408 1406 1405 1404 1403 1402 1401 1401 1400 1399 1399 1399 1398 1398 1398 1397 1397 1397 1397 1397 1397 1397 1397 1397 1397 1397 1398 1398 1399 1399 1399 1400 1401 1402 1402 1404 1405 1406 1408 1409 1410 1411
1408 1406 1404 1403 1402 1401 1400 1399 1398 1398 1397 1397 1397 1396 1396 1395 1395 1395 1394 1394 1394 1394 1393 1393 1393 1393 1393 1394 1394 1394 1395 1395 1396 1396 1397 1398 1399 1400 1401 1402 1404 1405 1406
1406 1404 1403 1401 1400 1399 1398 1397 1396 1396 1395 1395 1394 1394 1394 1393 1393 1392 1392 1391 1391 1390 1390 1390 1390 1390 1390 1390 1390 1390 1390 1391 1391 1391 1392 1393 1394 1395 1396 1397 1399 1400 1402
1404 1403 1401 1400 1399 1398 1396 1395 1395 1394 1393 1393 1392 1392 1391 1391 1390 1390 1389 1389 1388 1388 1387 1387 1386 1386 1386 1386 1386 1386 1386 1386 1387 1387 1388 1389 1389 1390 1392 1393 1394 1396 1397